Theta_e
285 287 288 287 286 287 287 287 283 286 287 292 295 298 300 303 313 315 316 318 320 320 321 322 322 322 322 320 320 323 324 322 320 321 321 321 320 320 322 324 325 326 323 323
284 288 287 285 288 289 289 290 289 289 288 297 299 302 309 309 314 315 317 319 320 321 322 322 322 322 321 319 320 324 324 325 326 325 322 321 320 323 322 325 326 326 321 320
278 285 286 282 287 289 290 291 290 287 293 300 303 307 310 310 315 316 318 319 320 321 322 322 322 322 318 319 320 323 327 328 326 323 322 321 320 321 324 322 324 322 317 317
280 283 274 287 296 295 291 294 295 296 301 305 306 309 311 313 312 316 319 319 320 322 322 322 321 319 317 318 322 324 327 327 324 323 322 321 319 319 318 320 322 317 315 314
279 280 285 290 292 291 290 292 300 300 302 304 309 307 308 315 316 315 317 320 321 323 322 321 318 317 318 320 322 325 325 324 325 323 321 320 319 318 317 318 317 315 315 313
283 278 277 289 292 295 295 287 299 301 301 301 304 298 303 313 317 317 316 321 321 322 322 319 316 317 319 319 321 323 325 324 324 322 322 321 319 318 318 318 318 318 315 313
281 280 286 291 292 293 287 290 300 302 302 302 303 305 311 315 318 319 318 319 320 321 319 319 316 317 318 319 320 323 326 324 323 321 322 322 319 319 319 320 320 317 316 313
284 282 280 292 290 291 296 300 303 302 302 305 308 311 314 317 318 319 318 319 321 320 318 315 317 317 316 318 322 322 323 323 321 321 324 322 320 319 319 319 317 315 314 313
285 285 289 290 290 299 303 302 303 302 304 305 308 309 311 312 313 317 319 320 321 320 315 316 317 317 314 317 315 320 321 320 321 322 322 322 320 318 317 317 317 318 318 317
289 292 294 296 300 301 303 302 304 305 305 309 307 309 309 313 314 316 320 319 319 316 315 314 315 316 317 313 316 321 320 320 322 322 320 322 322 320 318 317 317 318 317 316
290 294 296 298 300 302 302 305 305 307 307 309 308 308 309 310 313 315 317 320 319 317 315 315 315 315 314 314 320 319 320 322 322 321 321 320 318 317 319 318 318 318 316 315
287 294 295 296 301 303 303 304 305 306 306 307 308 308 310 310 314 315 316 316 319 318 317 317 316 315 314 317 322 321 320 322 323 322 321 319 315 311 295 302 304 306 306 312
295 299 299 301 302 305 304 305 306 306 307 306 308 308 308 309 313 312 317 319 320 319 318 318 317 316 317 319 322 321 321 322 322 321 321 317 315 316 314 306 297 299 298 302
300 299 297 300 300 304 305 305 306 306 306 307 308 309 309 308 311 314 317 319 320 321 320 319 318 318 318 320 322 322 322 310 323 323 322 317 315 315 315 312 313 312 297 301
299 301 301 303 302 301 303 304 303 302 304 305 308 307 308 308 308 311 316 316 312 312 315 320 320 320 321 321 322 320 321 322 323 323 322 317 315 312 313 312 314 312 307 300
299 299 299 299 298 299 300 300 301 301 302 304 305 305 306 309 310 309 310 310 307 304 308 308 312 315 322 319 320 321 321 312 316 323 319 317 314 312 310 310 312 312 313 313
295 296 297 297 298 298 299 299 300 301 301 302 303 304 305 306 306 305 304 308 309 305 304 307 305 312 315 318 320 322 321 318 314 323 320 320 318 315 313 311 310 311 313 310
301 300 299 298 297 298 298 298 298 299 299 301 302 302 302 302 301 301 302 302 303 306 303 305 304 306 311 308 307 316 321 320 319 322 322 321 320 320 317 314 313 312 311 308
300 300 299 300 299 298 298 297 297 297 298 300 300 298 298 300 299 301 299 298 297 298 299 305 299 304 308 306 306 318 318 318 318 320 320 313 315 319 319 318 317 315 313 310
298 299 299 299 298 297 296 297 297 297 297 297 297 296 295 296 297 296 298 295 295 295 298 304 304 303 307 308 303 317 321 317 316 317 315 313 317 315 318 310 319 318 316 313
299 299 298 298 297 297 296 296 296 295 296 295 294 294 293 293 295 293 291 291 293 294 296 297 297 298 304 302 310 314 316 321 318 313 313 312 312 311 312 315 317 319 319 317
299 299 298 297 296 296 296 296 295 295 295 294 294 293 292 292 293 292 292 290 291 290 292 293 293 289 294 297 311 310 310 313 317 320 316 314 312 310 310 310 311 314 317 319
298 300 299 298 296 296 297 296 295 295 294 293 292 292 291 291 291 290 289 291 292 290 291 291 288 287 289 303 305 305 303 304 308 312 315 318 320 319 316 315 314 314 311 312
298 297 297 298 297 296 294 294 295 295 294 294 293 293 292 290 290 291 292 291 288 290 290 288 289 288 292 299 299 299 297 298 302 303 304 299 307 309 310 312 314 314 314 313
298 297 297 295 294 293 294 294 295 294 293 292 292 292 293 292 290 290 291 291 288 290 290 288 288 289 293 295 295 295 294 294 294 297 299 299 301 303 306 309 308 304 306 307
297 295 295 296 294 293 292 293 292 291 291 290 290 291 292 292 290 289 290 290 291 289 289 289 289 291 291 291 292 292 292 291 292 292 293 295 296 297 299 299 301 302 302 303
297 295 296 294 294 293 293 292 291 289 290 289 288 289 290 291 289 288 287 289 290 289 289 289 289 288 289 290 290 290 291 290 289 290 290 291 291 292 293 294 295 295 296 297
Wind_Speed
9 12 14 15 17 17 12 8 8 7 7 21 9 14 14 8 7 9 7 13 12 11 10 9 9 8 7 6 7 6 7 6 6 6 5 5 5 4 4 4 4 6 5 5
9 10 19 18 19 19 17 18 13 13 20 14 7 10 13 10 13 14 11 12 13 13 12 12 12 10 8 7 7 7 7 7 7 7 6 6 5 3 3 5 6 6 5 5
6 10 11 13 21 23 15 12 12 10 9 7 13 8 6 6 13 17 16 15 15 15 13 12 11 11 8 9 6 7 7 7 8 6 6 6 5 3 5 6 6 6 5 5
6 5 7 4 9 7 14 12 13 7 10 15 12 6 2 4 2 9 12 12 15 13 12 11 9 9 7 7 7 7 8 9 7 6 7 6 5 5 5 4 6 6 5 5
4 3 8 8 7 6 5 2 6 6 8 8 5 5 2 4 4 4 5 9 10 13 12 10 9 8 9 7 8 7 8 8 7 6 7 7 6 6 4 5 4 4 4 5
3 3 5 3 7 11 10 5 6 11 10 10 6 3 4 2 4 6 6 8 10 12 10 11 8 10 10 8 8 8 9 9 7 7 8 7 7 6 3 4 5 4 5 3
7 5 6 4 12 11 7 2 14 14 13 12 4 5 3 4 1 4 5 8 8 11 13 13 10 10 10 9 10 9 8 7 6 6 7 6 6 4 5 6 6 5 5 3
3 5 4 10 13 3 5 6 8 13 14 11 7 5 3 9 11 12 6 12 14 12 10 9 12 12 9 11 9 7 8 7 6 6 5 5 6 5 5 6 6 5 5 4
2 2 3 12 14 10 7 6 4 11 15 13 0 8 9 7 7 11 7 13 13 13 10 9 11 12 11 10 7 7 8 7 6 6 5 6 6 6 4 5 6 6 5 4
5 3 5 9 8 11 15 14 15 14 16 8 13 11 13 10 8 7 3 7 10 12 13 11 8 10 12 8 7 9 8 8 6 7 6 5 4 4 5 5 5 6 5 5
4 5 9 9 12 13 18 18 21 14 4 10 16 14 12 11 6 9 9 2 6 11 12 12 9 9 7 9 8 8 8 8 6 5 5 5 3 2 3 3 5 6 4 4
3 10 4 10 7 12 11 15 20 13 11 15 17 16 13 9 7 9 7 7 5 6 8 9 10 7 7 9 10 10 8 7 7 7 4 4 4 3 8 5 7 7 8 5
3 11 9 11 5 3 6 10 13 11 15 16 17 12 11 6 9 9 10 8 7 1 7 11 12 10 8 9 10 11 10 8 6 7 5 6 4 5 5 4 7 4 8 10
6 8 4 5 3 3 5 8 12 14 15 14 14 11 11 8 8 12 12 10 11 8 7 8 9 11 8 10 10 10 10 13 9 8 7 6 5 5 4 4 4 3 6 3
9 9 6 5 9 10 9 9 14 15 14 16 14 13 11 10 12 13 14 16 17 19 16 4 5 4 5 9 10 9 8 8 8 7 7 7 5 4 4 4 3 4 3 4
8 7 8 8 9 12 12 15 13 11 11 13 12 13 11 10 13 15 14 16 20 16 15 14 12 10 5 8 8 7 8 13 9 7 5 6 5 5 4 4 4 4 4 4
5 7 7 8 8 7 9 9 9 10 10 11 10 10 12 11 16 16 14 13 12 14 15 15 14 12 11 4 8 8 7 7 11 7 7 8 7 7 6 5 5 5 5 6
4 4 5 5 6 7 9 11 10 11 11 11 10 11 14 15 12 12 12 11 12 13 16 15 15 12 10 11 5 1 6 8 8 9 8 8 7 7 7 7 6 6 4 4
5 5 6 7 7 9 10 11 11 9 11 10 9 10 10 10 9 9 11 14 15 13 15 15 19 13 11 13 8 3 2 5 8 6 7 7 6 7 7 7 7 8 6 6
3 5 6 7 8 8 9 7 7 11 11 10 8 10 12 12 12 11 10 13 12 8 12 13 13 11 11 12 12 6 3 4 5 6 5 6 8 7 7 9 9 8 8 8
3 2 3 7 7 7 8 7 8 10 10 11 11 11 11 9 12 11 10 9 14 14 11 13 13 11 8 10 10 9 9 6 3 4 5 6 5 5 6 7 8 8 8 8
4 4 4 7 6 5 6 6 7 9 11 12 11 12 13 12 10 9 13 10 7 15 9 9 10 14 9 13 9 10 11 11 9 8 6 5 2 3 4 4 5 5 6 7
6 4 4 7 6 5 5 6 7 9 11 10 12 11 9 9 8 8 8 12 7 11 9 10 14 15 12 11 10 11 11 12 12 11 11 10 9 9 6 6 5 4 4 5
6 6 6 8 7 7 6 3 6 8 9 10 11 10 7 4 7 8 6 10 11 10 11 12 13 14 12 10 11 12 12 12 11 10 10 11 10 9 10 11 11 10 11 11
6 7 7 7 7 4 6 5 6 7 8 9 9 8 9 7 7 7 8 10 15 11 12 16 15 15 12 12 12 12 12 11 11 10 11 11 10 10 10 9 10 10 10 10
6 4 5 7 6 5 4 4 5 4 4 6 5 5 6 6 6 7 10 13 12 13 12 12 12 12 11 12 12 12 12 12 12 12 12 11 11 11 11 11 11 10 10 10
5 4 5 4 3 4 4 5 6 5 4 4 5 4 4 5 8 9 12 10 10 12 12 11 11 12 11 11 11 12 11 11 13 12 12 11 11 10 11 11 10 10 10 10
Wind_Direction
244 260 282 275 263 265 243 236 238 308 287 273 311 297 301 268 151 136 176 150 150 147 147 145 140 149 152 150 152 142 136 143 150 154 156 153 142 149 177 190 139 131 127 101
271 254 255 277 253 252 254 252 254 261 274 276 268 300 312 238 167 162 170 166 153 155 153 156 158 163 157 165 159 145 148 151 161 144 155 153 149 151 148 122 117 123 119 109
257 287 301 277 229 223 228 230 214 227 256 332 313 316 321 296 181 170 166 178 160 160 162 164 165 167 164 175 142 145 149 150 149 150 147 151 155 146 124 123 119 116 120 110
284 311 247 259 17 205 216 233 233 271 284 289 249 222 238 339 119 164 161 185 165 159 159 163 161 169 147 148 143 145 153 153 148 160 145 142 147 127 114 117 135 132 132 120
249 236 294 241 40 11 357 247 29 293 314 323 313 288 69 34 35 2 189 173 189 160 160 157 159 162 148 143 141 144 155 156 164 159 144 149 160 164 144 130 129 138 139 138
204 279 292 49 348 343 313 262 353 342 336 318 289 202 241 65 32 337 305 174 179 162 157 157 159 157 148 152 147 165 160 170 168 165 156 163 162 162 150 140 145 133 128 148
225 243 258 346 326 315 195 315 316 333 325 317 231 205 264 322 164 217 252 182 156 160 168 168 153 157 158 153 173 180 157 155 158 161 163 161 147 142 143 125 125 131 130 121
199 226 266 360 325 263 321 303 313 337 309 306 283 88 65 26 356 319 220 167 160 162 170 153 159 159 156 170 182 157 151 154 157 153 149 143 148 135 135 126 126 132 119 95
311 270 275 280 239 272 306 313 332 298 307 292 21 80 73 49 333 290 182 170 164 165 152 156 166 166 162 190 147 151 146 147 138 134 137 138 141 132 118 123 134 151 158 156
305 330 275 283 352 344 15 346 323 317 291 249 79 56 57 59 318 324 52 160 157 150 155 159 166 168 178 156 152 148 146 141 139 138 136 129 123 138 133 140 139 159 169 175
303 306 326 356 359 347 337 335 338 325 259 77 65 50 40 38 332 18 28 145 148 159 163 166 163 168 150 150 144 144 147 147 141 127 143 129 101 110 143 155 157 159 167 155
312 307 327 320 307 315 340 343 330 360 49 63 60 53 35 24 358 17 1 2 125 164 158 157 159 159 145 153 146 142 141 149 153 145 147 137 149 120 36 73 141 139 151 146
284 305 293 273 263 34 359 317 340 20 36 48 56 45 42 5 332 10 17 19 42 145 199 165 173 164 150 158 149 153 155 155 150 146 153 155 167 160 161 35 55 152 175 169
331 330 323 5 0 25 3 344 8 25 42 45 49 43 34 20 356 40 32 22 27 24 171 173 182 180 152 155 157 160 161 158 164 165 166 163 171 181 160 162 179 167 56 110
349 339 319 9 30 14 14 22 42 28 23 29 35 36 18 26 23 27 32 26 30 34 29 62 152 132 149 156 156 160 157 167 168 170 171 172 163 169 176 168 168 135 115 80
322 344 355 27 21 14 16 20 35 30 31 32 24 29 17 32 47 42 37 36 43 27 20 25 24 348 193 156 151 163 171 171 166 168 154 159 158 165 171 178 162 164 170 151
347 2 353 7 22 24 38 25 18 32 36 41 27 22 30 40 46 36 27 30 44 38 20 21 7 353 19 15 168 173 170 172 178 166 166 176 176 180 183 168 178 178 196 173
342 339 20 44 22 14 33 45 34 26 28 31 36 32 32 37 38 35 28 24 29 34 21 1 0 350 5 14 359 247 174 172 177 187 181 176 185 183 177 183 185 190 191 162
23 15 14 27 22 48 45 37 36 30 28 35 36 45 45 39 40 36 33 35 32 18 355 346 342 354 4 4 360 28 179 165 186 191 190 187 174 181 184 186 187 196 181 159
40 354 20 35 39 48 52 34 32 34 33 37 40 43 40 30 32 29 31 43 30 8 332 345 343 0 354 360 352 10 69 181 177 194 173 179 186 186 192 194 197 198 190 186
161 121 41 51 59 40 40 20 35 43 37 47 50 50 51 43 53 32 31 26 0 354 356 358 5 350 347 351 17 15 19 30 18 222 184 180 184 194 195 199 204 204 200 200
177 140 116 92 101 68 41 41 51 50 44 42 46 46 48 45 45 52 42 24 350 346 5 13 4 338 347 9 26 25 22 24 24 28 42 39 336 227 209 198 209 217 217 212
158 138 117 112 114 114 60 47 64 65 58 43 43 39 41 48 44 40 35 16 15 4 23 16 353 350 4 33 30 32 27 25 26 24 28 32 32 38 43 33 19 344 294 237
122 122 112 121 108 102 101 71 70 71 72 60 49 47 42 39 51 47 54 33 16 30 35 16 10 7 24 34 34 36 29 28 24 25 30 30 27 28 29 24 27 15 26 23
143 134 126 120 109 115 119 117 92 69 63 60 53 38 44 38 53 49 51 51 36 39 37 24 23 29 33 33 34 37 32 27 25 23 28 31 29 24 20 19 25 22 22 25
154 168 143 139 140 138 132 119 104 93 85 72 52 44 42 36 49 51 55 51 50 43 44 35 27 33 38 36 37 35 34 29 25 26 23 25 21 21 19 19 15 17 10 12
131 129 118 105 123 129 126 122 112 102 104 114 94 42 47 44 46 53 54 46 47 49 51 43 36 34 37 37 38 38 35 33 32 31 30 26 23 19 14 12 14 14 10 11